Time,TemperatureF,DewpointF,PressureIn,WindDirection,WindDirectionDegrees,WindSpeedMPH,WindSpeedGustMPH,Humidity,HourlyPrecipIn,Conditions,Clouds,dailyrainin,SoftwareType,DateUTC
2013-03-26 00:14:00,-1.0,-6.0,29.79,West,279,4.0,9.0,80,0.00,,,0.00,weatherlink.com 1.10,2013-03-26 08:14:00,
2013-03-26 00:29:00,-1.4,-6.0,29.80,NNW,348,1.0,6.0,80,0.00,,,0.00,weatherlink.com 1.10,2013-03-26 08:29:00,
2013-03-26 00:44:00,-1.6,-6.0,29.81,WNW,284,3.0,8.0,80,0.00,,,0.00,weatherlink.com 1.10,2013-03-26 08:44:00,
2013-03-26 00:59:00,-1.9,-7.0,29.82,West,263,1.0,6.0,79,0.00,,,0.00,weatherlink.com 1.10,2013-03-26 08:59:00,
2013-03-26 01:14:00,-2.0,-7.0,29.83,West,280,1.0,7.0,78,0.00,,,0.00,weatherlink.com 1.10,2013-03-26 09:14:00,
2013-03-26 01:44:00,-2.5,-8.0,29.84,NW,324,2.0,5.0,78,0.00,,,0.00,weatherlink.com 1.10,2013-03-26 09:44:00,
2013-03-26 01:59:00,-2.8,-8.0,29.84,West,280,0.0,6.0,78,0.00,,,0.00,weatherlink.com 1.10,2013-03-26 09:59:00,
2013-03-26 02:14:00,-3.0,-8.0,29.85,WNW,297,0.0,6.0,78,0.00,,,0.00,weatherlink.com 1.10,2013-03-26 10:14:00,
2013-03-26 02:29:00,-3.2,-8.0,29.86,WSW,250,0.0,5.0,78,0.00,,,0.00,weatherlink.com 1.10,2013-03-26 10:29:00,
2013-03-26 02:44:00,-3.4,-9.0,29.86,West,270,0.0,5.0,78,0.00,,,0.00,weatherlink.com 1.10,2013-03-26 10:44:00,
2013-03-26 02:59:00,-3.5,-9.0,29.87,SW,235,0.0,6.0,79,0.00,,,0.00,weatherlink.com 1.10,2013-03-26 10:59:00,
2013-03-26 03:15:00,-3.5,-9.0,29.88,SSW,195,2.0,9.0,78,0.00,,,0.00,weatherlink.com 1.10,2013-03-26 11:15:00,
2013-03-26 03:30:00,-3.7,-9.0,29.88,NW,315,2.0,5.0,79,0.00,,,0.00,weatherlink.com 1.10,2013-03-26 11:30:00,
2013-03-26 03:45:00,-3.8,-9.0,29.89,WSW,243,1.0,7.0,79,0.00,,,0.00,weatherlink.com 1.10,2013-03-26 11:45:00,
2013-03-26 04:00:00,-3.8,-9.0,29.89,WSW,246,2.0,7.0,79,0.00,,,0.00,weatherlink.com 1.10,2013-03-26 12:00:00,
2013-03-26 04:15:00,-4.0,-8.0,29.90,WSW,252,0.0,3.0,81,0.00,,,0.00,weatherlink.com 1.10,2013-03-26 12:15:00,
2013-03-26 04:30:00,-4.1,-9.0,29.90,NW,316,2.0,5.0,81,0.00,,,0.00,weatherlink.com 1.10,2013-03-26 12:30:00,
2013-03-26 04:45:00,-4.2,-9.0,29.91,NW,316,6.0,7.0,80,0.00,,,0.00,weatherlink.com 1.10,2013-03-26 12:45:00,
2013-03-26 05:00:00,-4.4,-10.0,29.90,WNW,289,4.0,8.0,78,0.00,,,0.00,weatherlink.com 1.10,2013-03-26 13:00:00,
2013-03-26 05:15:00,-4.7,-10.0,29.91,WSW,255,2.0,7.0,78,0.00,,,0.00,weatherlink.com 1.10,2013-03-26 13:15:00,
2013-03-26 05:30:00,-5.0,-10.0,29.91,West,260,2.0,7.0,78,0.00,,,0.00,weatherlink.com 1.10,2013-03-26 13:30:00,
2013-03-26 05:45:00,-5.2,-10.0,29.92,West,279,3.0,7.0,78,0.00,,,0.00,weatherlink.com 1.10,2013-03-26 13:45:00,
2013-03-26 06:05:00,-5.4,-11.0,29.93,WSW,256,4.0,7.0,78,0.00,,,0.00,weatherlink.com 1.10,2013-03-26 14:05:00,
2013-03-26 06:15:00,-5.6,-11.0,29.94,WNW,288,1.0,5.0,78,0.00,,,0.00,weatherlink.com 1.10,2013-03-26 14:15:00,
2013-03-26 06:31:00,-5.6,-11.0,29.95,WSW,254,1.0,6.0,78,0.00,,,0.00,weatherlink.com 1.10,2013-03-26 14:31:00,
2013-03-26 06:46:00,-5.7,-11.0,29.95,NW,316,1.0,8.0,77,0.00,,,0.00,weatherlink.com 1.10,2013-03-26 14:46:00,
2013-03-26 08:01:00,-6.6,-12.0,29.98,WSW,246,0.0,3.0,77,0.00,,,0.00,weatherlink.com 1.10,2013-03-26 16:01:00,
2013-03-26 08:16:00,-6.0,-11.0,29.98,WSW,248,0.0,4.0,77,0.00,,,0.00,weatherlink.com 1.10,2013-03-26 16:16:00,
2013-03-26 08:31:00,-4.7,-11.0,29.99,WNW,291,1.0,10.0,74,0.00,,,0.00,weatherlink.com 1.10,2013-03-26 16:31:00,
2013-03-26 08:46:00,-4.5,-11.0,29.99,West,271,1.0,6.0,73,0.00,,,0.00,weatherlink.com 1.10,2013-03-26 16:46:00,
2013-03-26 09:01:00,-4.1,-11.0,30.00,WSW,242,0.0,6.0,72,0.00,,,0.00,weatherlink.com 1.10,2013-03-26 17:01:00,
2013-03-26 09:16:00,-3.5,-11.0,30.00,SW,235,5.0,6.0,71,0.00,,,0.00,weatherlink.com 1.10,2013-03-26 17:16:00,
2013-03-26 09:32:00,-3.6,-11.0,30.00,WSW,248,1.0,5.0,71,0.00,,,0.00,weatherlink.com 1.10,2013-03-26 17:32:00,
2013-03-26 09:47:00,-4.0,-11.0,30.01,West,261,5.0,9.0,71,0.00,,,0.00,weatherlink.com 1.10,2013-03-26 17:47:00,
2013-03-26 10:02:00,-3.8,-11.0,30.02,WSW,255,2.0,10.0,71,0.00,,,0.00,weatherlink.com 1.10,2013-03-26 18:02:00,
2013-03-26 10:17:00,-3.0,-10.0,30.03,West,278,4.0,9.0,71,0.00,,,0.00,weatherlink.com 1.10,2013-03-26 18:17:00,
2013-03-26 10:32:00,-2.2,-10.0,30.03,WSW,256,1.0,10.0,68,0.00,,,0.00,weatherlink.com 1.10,2013-03-26 18:32:00,
2013-03-26 10:47:00,-2.0,-11.0,30.04,West,274,2.0,8.0,67,0.00,,,0.00,weatherlink.com 1.10,2013-03-26 18:47:00,
2013-03-26 11:02:00,-2.4,-11.0,30.04,NW,319,5.0,9.0,66,0.00,,,0.00,weatherlink.com 1.10,2013-03-26 19:02:00,
2013-03-26 11:17:00,-2.6,-11.0,30.05,WSW,253,2.0,10.0,67,0.00,,,0.00,weatherlink.com 1.10,2013-03-26 19:17:00,
2013-03-26 11:32:00,-2.4,-11.0,30.06,West,264,0.0,6.0,68,0.00,,,0.00,weatherlink.com 1.10,2013-03-26 19:32:00,
2013-03-26 11:47:00,-2.1,-10.0,30.06,WNW,293,2.0,9.0,68,0.00,,,0.00,weatherlink.com 1.10,2013-03-26 19:47:00,
2013-03-26 12:02:00,-1.2,-10.0,30.07,WSW,255,1.0,4.0,67,0.00,,,0.00,weatherlink.com 1.10,2013-03-26 20:02:00,
2013-03-26 12:17:00,-1.1,-10.0,30.07,SSW,204,2.0,8.0,67,0.00,,,0.00,weatherlink.com 1.10,2013-03-26 20:17:00,
2013-03-26 12:32:00,-0.5,-9.0,30.07,SW,236,2.0,7.0,66,0.00,,,0.00,weatherlink.com 1.10,2013-03-26 20:32:00,
2013-03-26 12:47:00,0.7,-9.0,30.08,SE,138,1.0,7.0,64,0.00,,,0.00,weatherlink.com 1.10,2013-03-26 20:47:00,
2013-03-26 13:03:00,1.3,-10.0,30.08,West,271,4.0,10.0,60,0.00,,,0.00,weatherlink.com 1.10,2013-03-26 21:03:00,
2013-03-26 13:18:00,4.7,-6.0,30.09,SSW,208,1.0,6.0,61,0.00,,,0.00,weatherlink.com 1.10,2013-03-26 21:18:00,
2013-03-26 13:33:00,2.5,-10.0,30.09,West,273,3.0,11.0,55,0.00,,,0.00,weatherlink.com 1.10,2013-03-26 21:33:00,
2013-03-26 13:48:00,3.4,-8.0,30.09,West,272,3.0,7.0,58,0.00,,,0.00,weatherlink.com 1.10,2013-03-26 21:48:00,
2013-03-26 14:03:00,2.9,-10.0,30.10,SSW,212,1.0,9.0,55,0.00,,,0.00,weatherlink.com 1.10,2013-03-26 22:03:00,
2013-03-26 14:18:00,1.5,-11.0,30.10,WSW,256,4.0,8.0,57,0.00,,,0.00,weatherlink.com 1.10,2013-03-26 22:18:00,
2013-03-26 14:33:00,1.4,-10.0,30.11,NW,310,8.0,8.0,59,0.00,,,0.00,weatherlink.com 1.10,2013-03-26 22:33:00,
2013-03-26 14:48:00,1.3,-10.0,30.11,WSW,252,3.0,8.0,60,0.00,,,0.00,weatherlink.com 1.10,2013-03-26 22:48:00,
2013-03-26 15:03:00,1.7,-9.0,30.11,SW,219,0.0,4.0,60,0.00,,,0.00,weatherlink.com 1.10,2013-03-26 23:03:00,
2013-03-26 15:18:00,2.1,-8.0,30.12,WSW,242,0.0,6.0,62,0.00,,,0.00,weatherlink.com 1.10,2013-03-26 23:18:00,
2013-03-26 15:33:00,2.4,-9.0,30.12,WNW,290,3.0,6.0,59,0.00,,,0.00,weatherlink.com 1.10,2013-03-26 23:33:00,
2013-03-26 15:48:00,1.8,-9.0,30.13,WSW,255,3.0,6.0,60,0.00,,,0.00,weatherlink.com 1.10,2013-03-26 23:48:00,
2013-03-26 16:03:00,2.5,-9.0,30.13,West,280,0.0,6.0,58,0.00,,,0.00,weatherlink.com 1.10,2013-03-27 00:03:00,
2013-03-26 16:19:00,3.2,-10.0,30.13,SW,226,1.0,7.0,55,0.00,,,0.00,weatherlink.com 1.10,2013-03-27 00:19:00,
2013-03-26 16:34:00,3.1,-10.0,30.13,West,271,2.0,7.0,55,0.00,,,0.00,weatherlink.com 1.10,2013-03-27 00:34:00,
2013-03-26 16:49:00,3.8,-9.0,30.14,NE,34,1.0,5.0,56,0.00,,,0.00,weatherlink.com 1.10,2013-03-27 00:49:00,
2013-03-26 17:04:00,3.6,-10.0,30.13,NW,305,3.0,6.0,54,0.00,,,0.00,weatherlink.com 1.10,2013-03-27 01:04:00,
2013-03-26 17:19:00,3.3,-10.0,30.13,SW,235,4.0,7.0,55,0.00,,,0.00,weatherlink.com 1.10,2013-03-27 01:19:00,
2013-03-26 17:49:00,2.9,-10.0,30.14,West,281,1.0,7.0,55,0.00,,,0.00,weatherlink.com 1.10,2013-03-27 01:49:00,
2013-03-26 18:04:00,3.9,-10.0,30.14,West,273,3.0,7.0,52,0.00,,,0.00,weatherlink.com 1.10,2013-03-27 02:04:00,
2013-03-26 18:19:00,3.8,-11.0,30.15,West,273,3.0,7.0,51,0.00,,,0.00,weatherlink.com 1.10,2013-03-27 02:19:00,
2013-03-26 18:34:00,3.2,-11.0,30.15,NNW,342,1.0,8.0,51,0.00,,,0.00,weatherlink.com 1.10,2013-03-27 02:34:00,
2013-03-26 18:49:00,2.1,-12.0,30.16,WNW,300,4.0,8.0,52,0.00,,,0.00,weatherlink.com 1.10,2013-03-27 02:49:00,
2013-03-26 19:04:00,1.7,-12.0,30.16,West,270,3.0,6.0,53,0.00,,,0.00,weatherlink.com 1.10,2013-03-27 03:04:00,
2013-03-26 19:19:00,1.5,-12.0,30.16,West,265,1.0,6.0,54,0.00,,,0.00,weatherlink.com 1.10,2013-03-27 03:19:00,
2013-03-26 19:35:00,0.9,-12.0,30.16,West,281,5.0,11.0,54,0.00,,,0.00,weatherlink.com 1.10,2013-03-27 03:35:00,
2013-03-26 19:50:00,-0.3,-13.0,30.17,NW,322,0.0,6.0,56,0.00,,,0.00,weatherlink.com 1.10,2013-03-27 03:50:00,
2013-03-26 20:05:00,-1.3,-13.0,30.17,West,273,6.0,6.0,58,0.00,,,0.00,weatherlink.com 1.10,2013-03-27 04:05:00,
2013-03-26 20:20:00,-2.4,-13.0,30.18,WSW,256,1.0,3.0,60,0.00,,,0.00,weatherlink.com 1.10,2013-03-27 04:20:00,
2013-03-26 20:35:00,-3.4,-14.0,30.18,WNW,289,0.0,3.0,61,0.00,,,0.00,weatherlink.com 1.10,2013-03-27 04:35:00,
2013-03-26 20:50:00,-3.7,-14.0,30.19,West,263,3.0,5.0,62,0.00,,,0.00,weatherlink.com 1.10,2013-03-27 04:50:00,
2013-03-26 21:05:00,-3.8,-14.0,30.19,NE,53,0.0,6.0,62,0.00,,,0.00,weatherlink.com 1.10,2013-03-27 05:05:00,
2013-03-26 21:20:00,-5.2,-15.0,30.20,NNW,346,0.0,4.0,64,0.00,,,0.00,weatherlink.com 1.10,2013-03-27 05:20:00,
2013-03-26 21:35:00,-5.8,-14.0,30.20,WSW,257,0.0,1.0,66,0.00,,,0.00,weatherlink.com 1.10,2013-03-27 05:35:00,
2013-03-26 21:50:00,-6.4,-14.0,30.20,WSW,255,1.0,2.0,68,0.00,,,0.00,weatherlink.com 1.10,2013-03-27 05:50:00,
2013-03-26 22:05:00,-6.6,-15.0,30.20,WNW,298,0.0,2.0,68,0.00,,,0.00,weatherlink.com 1.10,2013-03-27 06:05:00,
2013-03-26 22:20:00,-8.1,-15.0,30.20,West,277,0.0,1.0,71,0.00,,,0.00,weatherlink.com 1.10,2013-03-27 06:20:00,
2013-03-26 22:35:00,-8.4,-15.0,30.21,West,262,0.0,1.0,72,0.00,,,0.00,weatherlink.com 1.10,2013-03-27 06:35:00,
2013-03-26 22:51:00,-7.7,-15.0,30.21,ESE,121,0.0,1.0,71,0.00,,,0.00,weatherlink.com 1.10,2013-03-27 06:51:00,
2013-03-26 23:06:00,-7.4,-15.0,30.22,ESE,122,0.0,0.0,70,0.00,,,0.00,weatherlink.com 1.10,2013-03-27 07:06:00,